Home   Weather   Woodbridge   Past weeks
Flag for South Africa

Past Weather in Woodbridge, South Africa — Yesterday and Last 2 Weeks

Now
82 °F

Sunny.


Feels Like: 81 °F
Forecast: 86 / 56 °F
Wind: 3 mph from North

Location: Bloemfontein Airport

Current Time: Mar 21, 2019 at 12:20:41 pm

Latest Report: Mar 21, 2019 at 12:00 pm


Visibility: 10 mi

Pressure: 30.09 "Hg

Humidity: 30%

Dew Point: 48 °F

Location of WoodbridgeLocation

Past Weather in Woodbridge — Graph

°F

Woodbridge Temperature Yesterday

Maximum temperature yesterday: 88 °F (at 3:00 pm)
Minimum temperature yesterday: 54 °F (at 6:00 am)
Average temperature yesterday: 70 °F

High & Low Weather Summary for the Past Weeks

 TemperatureHumidityPressure
High90 °F (Mar 7, 2:00 pm)100% (Mar 12, 12:00 am)30.27 "Hg (Mar 12, 12:00 am)
Low52 °F (Mar 21, 5:00 am)15% (Mar 19, 5:00 pm)29.95 "Hg (Mar 8, 5:00 pm)
Average70 °F65%30.12 "Hg
* Reported Mar 6 11:00 am — Mar 21 11:00 am, Woodbridge. Weather by CustomWeather, © 2019

Note: Actual official high and low records may vary slightly from our data, if they occured in-between our weather recording intervals... More about our weather records

Advertising

Woodbridge Weather History for the Previous 24 Hours

Scroll right to see more
 ConditionsComfort  
Time TempWeatherWind HumidityBarometerVisibility
11:00 am
Thu, Mar 21
81 °FSunny.5 mph34%30.09 "Hg10 mi
10:00 am75 °FPassing clouds.8 mph47%30.09 "HgN/A
9:00 am70 °FPassing clouds.5 mph57%30.09 "HgN/A
8:00 am61 °FSunny.No wind68%30.12 "Hg10 mi
7:00 am55 °FSunny.3 mph82%30.07 "Hg10 mi
6:00 am52 °FClear.No wind82%30.04 "Hg10 mi
5:00 am52 °FClear.No wind82%30.04 "Hg10 mi
4:00 am54 °FCool.No wind82%30.01 "HgN/A
3:00 am57 °FCool.1 mph72%30.01 "HgN/A
2:00 am55 °FCool.3 mph77%30.01 "HgN/A
1:00 am59 °FCool.No wind68%30.04 "HgN/A
12:00 am59 °FCool.2 mph63%30.04 "HgN/A
11:00 pm
Wed, Mar 20
63 °FMild.2 mph59%30.04 "HgN/A
10:00 pm63 °FMild.No wind59%30.04 "HgN/A
9:00 pm66 °FMild.3 mph49%30.04 "HgN/A
8:00 pm70 °FClear.2 mph40%30.04 "Hg10 mi
7:00 pm77 °FClear.5 mph30%30.01 "Hg10 mi
6:00 pm81 °FSunny.8 mph23%30.01 "Hg10 mi
5:00 pm84 °FPassing clouds.13 mph22%29.98 "HgN/A
4:00 pm86 °FPassing clouds.12 mph18%29.98 "HgN/A
3:00 pm88 °FPassing clouds.6 mph21%29.98 "HgN/A
2:00 pm86 °FPassing clouds.7 mph20%30.01 "HgN/A
1:00 pm86 °FPassing clouds.6 mph22%30.01 "HgN/A
12:00 pm84 °FPassing clouds.6 mph25%30.04 "HgN/A
Weather by CustomWeather, © 2019

See weather overview